Location: Grand Rapids
(42.9630°N, 85.6680°W)
Time: 02:43:38
(UTC-04:00)

A-11 Canister half - Pass Details

Date: 03 June 2024
Orbit: 1524 x 1684 km, 47.3° (Epoch: 21 June)

Event Time Altitude Azimuth Distance (km) Brightness Sun altitude
Rises 18:15:51 0° 209° (SSW) 4,671 11.9 30.4°
Reaches altitude 10° 18:19:06 10° 203° (SSW) 3,684 11.3 29.8°
Maximum altitude 18:27:32 41° 137° (SE) 2,085 9.7 28.3°
Drops below altitude 10° 18:36:01 10° 71° (ENE) 3,720 10.6 26.7°
Sets 18:39:19 0° 65° (ENE) 4,721 11.1 26.1°
